DECAYED

OBJECT AX, 57323 (Decayed)

Orbit data source: Space-Track

You're viewing an Uncataloged Satellite

Recently launched and/or uncataloged satellites may have evolving metadata. Metadata may include but not limited to: Owner, Maufacturer, Bus, Motor, and Mission.

OBJECT AX, 57323 was a satellite in LEO that was launched on Tue, 27 Jun 2023 UTC via a SOYUZ-2-1B launch vehicle from the Vostochny Cosmodrome (VOSTO). Unknown objects in Earth's orbit typically refer to objects detected orbiting the Earth but have not yet been identified or cataloged. These objects could be anything from previously untracked satellites, spent rocket stages, debris from satellite collisions, or even natural meteoroids temporarily captured by Earth's gravity. This object's orbit decayed before it could be identified.

Not visible in the next 10 days
Identifier
57323, 2023-091AX
Orbit
Decayed
Country
Flag of TBDTBD
Related business
Flag of RUOOO Stratonavtika (RU)
Manufacturer
MKS
Mission
Decayed Commercial Communications
Bus & Motor
TINYSAT 1TU, Unknown motor
Mass
0.125 kg wet, 0.125 kg dry
Launch date (UTC)
2023-06-27 (3 years ago)
Launch vehicle
SOYUZ-2-1B
Launch site
Vostochny Cosmodrome (VOSTO)
Object type
Unknown
Shape & HBR
Box, 0.0 m
Radar Cross Section
0.004 m², Small (<0.1 m²)

Expand to show TLE details & history
Last TLE update: 2 months ago

TLE from 2 months ago
0 OBJECT AX
1 57323U 23091AX  26133.02183056  .14495706  26369-5  28950-3 0  9999
2 57323  97.4828 216.0990 0013919 266.8618  93.1092 16.46070336158124
Epoch: 2026-05-13T00:31Z
TLE epoch observation values (Epoch: 2026-05-13T00:31:26.160Z)
Latitude
Longitude
-22.54783°
Altitude
153.467 km
Speed
7.814 km/s
True Right ascension
14h 24m 23s
True Declination
0° 00' 00"
Sunlit
Object was in full shadow at epoch
Visualization orbit readout
Latitude
Unknown
Longitude
Unknown
Altitude
Unknown
Speed
Unknown
Apparent Right ascension
Unknown
Apparent Declination
Unknown
Sunlit
N/A
Visualization observer readout
Local Sidereal Time
19:12:05
Azimuth
Unknown
Elevation
Unknown
Doppler factor
Unknown
Orbital elements
Apogee altitude
155.589 km
Perigee altitude
137.426 km
Semi-major axis
6,524.645 km
Eccentricity
0.00139
Inclination
97.4828°
RAAN
216.099°
Arg. of periapsis
266.8618°
True anomaly
93.26845°
Mean anomaly
93.1092°
Eccentric anomaly
93.18883°
Mean motion
4.1182 °/min
Orbital period
87.42 mins
BSTAR
0.0002895
Loading maneuver chart data...
Computing Atmospheric mass density...
Loading historical data...
Loading historical data...
Loading historical data...
Loading historical data...
Loading historical data...
Loading historical data...
Loading historical data...

Documentation

Showing up to 5 results
|